Location: Bosdarros
(43.2167°N, 0.3667°W)
Time: 11:25:26
(UTC+00:00)

FENGYUN 1C DEB - Pass Details

Date: 27 October 2021
Orbit: 805 x 871 km, 98.8° (Epoch: 26 November)

Event Time Altitude Azimuth Distance (km) Brightness Sun altitude
Exits shadow 19:59:33 44° 259° (W) 1,110 ? -33.2°
Maximum altitude 19:59:36 44° 261° (W) 1,109 ? -33.2°
Drops below altitude 10° 20:04:41 10° 333° (NNW) 2,409 ? -34.1°
Sets 20:07:09 0° 340° (NNW) 3,353 ? -34.5°
